Flag for Germany Weather past 2 weeks in Augsburg, Bavaria, Germany

Now
70 °F

Sunny.


Feels Like: 70 °F
Forecast: 53 / 66 °F
Wind: 8 mph from Southwest

Location: Augsburg Airport

Current Time: Jul 8, 2015 at 9:18:08 AM

Latest Report: Jul 8, 2015 at 8:50 AM


Visibility: 10 mi

Pressure: 29.89 "Hg

Humidity: 73%

Dew point: 61 °F

Location of AugsburgLocation

Historic Weather in Augsburg — Graph

°F

Augsburg temperature yesterday

Maximum temperature yesterday: 93 °F (at 2:50 PM)
Minimum temperature yesterday: 61 °F (at 6:20 AM)
Average temperature yesterday: 84 °F

Past Weeks' High & Low Weather Summary

 TemperatureHumidityPressure
High95 °F (Jul 4, 4:50 PM)100% (Jun 24, 6:20 AM)30.30 "Hg (Jun 24, 6:20 AM)
Low45 °F (Jun 25, 6:20 AM)28% (Jul 7, 3:50 PM)29.77 "Hg (Jul 7, 8:20 PM)
Average74 °F54%30.14 "Hg
* Reported Jun 23 8:20 AM — Jul 8 8:20 AM, Augsburg, Weather by CustomWeather, © 2015

Note: Actual official high and low records may vary slightly from our data, if they occured in-between our weather recording intervals... More about our weather records

Advertising

Augsburg weather history for previous 24 hours

 ConditionsComfort  
Time TempWeatherWind HumidityBarometerVisibility
8:20 AM
Wed, Jul 8
70 °FSunny.7 mph69%29.89 "Hg10 mi
7:50 AM70 °FPassing clouds.5 mph73%29.89 "HgN/A
7:20 AM68 °FPassing clouds.5 mph94%29.92 "HgN/A
6:50 AM68 °FSunny.5 mph100%29.92 "Hg10 mi
6:20 AM68 °FClear.6 mph100%29.92 "Hg10 mi
8:50 PM
Tue, Jul 7
79 °FSunny.5 mph61%29.77 "Hg10 mi
8:20 PM88 °FSunny.5 mph38%29.77 "Hg10 mi
7:50 PM88 °FSunny.5 mph43%29.80 "Hg10 mi
7:20 PM90 °FSunny.6 mph38%29.80 "Hg10 mi
6:50 PM91 °FSunny.7 mph36%29.83 "Hg10 mi
6:20 PM91 °FSunny.8 mph34%29.86 "Hg10 mi
5:50 PM91 °FPassing clouds.10 mph34%29.86 "HgN/A
5:20 PM93 °FSunny.13 mph30%29.86 "Hg10 mi
4:50 PM93 °FSunny.13 mph30%29.89 "Hg10 mi
4:20 PM93 °FSunny.15 mph28%29.89 "Hg10 mi
3:50 PM93 °FSunny.17 mph28%29.89 "Hg10 mi
3:20 PM93 °FPassing clouds.18 mph30%29.89 "HgN/A
2:50 PM93 °FSunny.20 mph30%29.92 "Hg10 mi
2:20 PM91 °FPassing clouds.10 mph36%29.92 "HgN/A
1:50 PM91 °FPassing clouds.9 mph36%29.95 "HgN/A
1:20 PM90 °FSunny.8 mph36%29.95 "Hg10 mi
12:50 PM88 °FSunny.7 mph40%29.95 "Hg10 mi
12:20 PM86 °FPassing clouds.5 mph46%29.98 "HgN/A
11:50 AM88 °FSunny.1 mph43%29.98 "Hg10 mi
11:20 AM84 °FSunny.1 mph43%29.98 "Hg10 mi
10:50 AM82 °FPassing clouds.3 mph58%30.01 "HgN/A
10:20 AM82 °FSunny.2 mph58%30.01 "Hg10 mi
9:50 AM81 °FSunny.1 mph62%30.01 "Hg10 mi
9:20 AM79 °FSunny.1 mph65%30.01 "Hg10 mi
Weather by CustomWeather, © 2015

See weather overviewHow to use our weather pages